Time,TemperatureF,DewpointF,PressureIn,WindDirection,WindDirectionDegrees,WindSpeedMPH,WindSpeedGustMPH,Humidity,HourlyPrecipIn,Conditions,Clouds,dailyrainin,SolarRadiationWatts/m^2,SoftwareType,DateUTC
2013-10-23 00:22:00,40.0,38.0,-100.00,North,354,2.0,5.0,91,0.00,,,0.00,0.000000,,2013-10-23 06:22:00,
2013-10-23 00:32:00,40.0,38.0,-100.00,North,354,2.0,5.0,91,0.00,,,0.00,0.000000,,2013-10-23 06:32:00,
2013-10-23 00:42:00,40.0,38.0,-100.00,North,354,2.0,5.0,91,0.00,,,0.00,0.000000,,2013-10-23 06:42:00,
2013-10-23 00:52:00,40.0,38.0,-100.00,North,354,2.0,5.0,91,0.00,,,0.00,0.000000,,2013-10-23 06:52:00,
2013-10-23 01:22:00,39.0,37.0,-100.00,North,355,2.0,5.0,94,0.00,,,0.00,0.000000,,2013-10-23 07:22:00,
2013-10-23 01:32:00,39.0,37.0,-100.00,North,355,2.0,5.0,94,0.00,,,0.00,0.000000,,2013-10-23 07:32:00,
2013-10-23 01:42:00,39.0,37.0,-100.00,North,355,2.0,5.0,94,0.00,,,0.00,0.000000,,2013-10-23 07:42:00,
2013-10-23 01:52:00,39.0,37.0,-100.00,North,355,2.0,5.0,94,0.00,,,0.00,0.000000,,2013-10-23 07:52:00,
2013-10-23 02:22:00,39.0,37.0,-100.00,NNW,338,2.0,4.0,93,0.00,,,0.00,0.000000,,2013-10-23 08:22:00,
2013-10-23 02:32:00,39.0,37.0,-100.00,NNW,338,2.0,4.0,93,0.00,,,0.00,0.000000,,2013-10-23 08:32:00,
2013-10-23 02:42:00,39.0,37.0,-100.00,NNW,338,2.0,4.0,93,0.00,,,0.00,0.000000,,2013-10-23 08:42:00,
2013-10-23 02:52:00,39.0,37.0,-100.00,NNW,338,2.0,4.0,93,0.00,,,0.00,0.000000,,2013-10-23 08:52:00,
2013-10-23 03:22:00,40.0,37.0,-100.00,NNW,329,1.0,3.0,90,0.00,,,0.00,0.000000,,2013-10-23 09:22:00,
2013-10-23 03:33:00,40.0,37.0,-100.00,NNW,329,1.0,3.0,90,0.00,,,0.00,0.000000,,2013-10-23 09:33:00,
2013-10-23 03:43:00,40.0,37.0,-100.00,NNW,329,1.0,3.0,90,0.00,,,0.00,0.000000,,2013-10-23 09:43:00,
2013-10-23 03:53:00,40.0,37.0,-100.00,NNW,329,1.0,3.0,90,0.00,,,0.00,0.000000,,2013-10-23 09:53:00,
2013-10-23 04:23:00,40.0,38.0,-100.00,NW,304,1.0,4.0,91,0.00,,,0.00,0.000000,,2013-10-23 10:23:00,
2013-10-23 04:32:00,40.0,38.0,-100.00,NW,304,1.0,4.0,91,0.00,,,0.00,0.000000,,2013-10-23 10:32:00,
2013-10-23 04:43:00,40.0,38.0,-100.00,NW,304,1.0,4.0,91,0.00,,,0.00,0.000000,,2013-10-23 10:43:00,
2013-10-23 04:53:00,40.0,38.0,-100.00,NW,304,1.0,4.0,91,0.00,,,0.00,0.000000,,2013-10-23 10:53:00,
2013-10-23 05:22:00,40.0,37.0,-100.00,SW,228,4.0,6.0,90,0.00,,,0.00,0.000000,,2013-10-23 11:22:00,
2013-10-23 05:33:00,40.0,37.0,-100.00,SW,228,4.0,6.0,90,0.00,,,0.00,0.000000,,2013-10-23 11:33:00,
2013-10-23 05:42:00,40.0,37.0,-100.00,SW,228,4.0,6.0,90,0.00,,,0.00,0.000000,,2013-10-23 11:42:00,
2013-10-23 05:52:00,40.0,37.0,-100.00,SW,228,4.0,6.0,90,0.00,,,0.00,0.000000,,2013-10-23 11:52:00,
2013-10-23 06:22:00,41.0,36.0,-100.00,WSW,241,4.0,13.0,83,0.00,,,0.00,0.000000,,2013-10-23 12:22:00,
2013-10-23 06:32:00,41.0,36.0,-100.00,WSW,241,4.0,13.0,83,0.00,,,0.00,0.000000,,2013-10-23 12:32:00,
2013-10-23 06:42:00,41.0,36.0,-100.00,WSW,241,4.0,13.0,83,0.00,,,0.00,0.000000,,2013-10-23 12:42:00,
2013-10-23 06:52:00,41.0,36.0,-100.00,WSW,241,4.0,13.0,83,0.00,,,0.00,0.000000,,2013-10-23 12:52:00,
2013-10-23 07:22:00,39.0,37.0,-100.00,SSW,196,4.0,6.0,91,0.00,,,0.00,0.000000,,2013-10-23 13:22:00,
2013-10-23 07:32:00,39.0,37.0,-100.00,SSW,196,4.0,6.0,91,0.00,,,0.00,0.000000,,2013-10-23 13:32:00,
2013-10-23 07:42:00,39.0,37.0,-100.00,SSW,196,4.0,6.0,91,0.00,,,0.00,0.000000,,2013-10-23 13:42:00,
2013-10-23 07:52:00,39.0,37.0,-100.00,SSW,196,4.0,6.0,91,0.00,,,0.00,0.000000,,2013-10-23 13:52:00,
2013-10-23 08:22:00,40.0,36.0,-100.00,WSW,241,5.0,12.0,87,0.00,,,0.00,7.000000,,2013-10-23 14:22:00,
2013-10-23 08:32:00,40.0,36.0,-100.00,WSW,241,5.0,12.0,87,0.00,,,0.00,7.000000,,2013-10-23 14:32:00,
2013-10-23 08:42:00,40.0,36.0,-100.00,WSW,241,5.0,12.0,87,0.00,,,0.00,7.000000,,2013-10-23 14:42:00,
2013-10-23 08:52:00,40.0,36.0,-100.00,WSW,241,5.0,12.0,87,0.00,,,0.00,7.000000,,2013-10-23 14:52:00,
2013-10-23 09:22:00,41.0,37.0,-100.00,SW,215,3.0,6.0,84,0.00,,,-99.99,53.000000,,2013-10-23 15:22:00,
2013-10-23 09:33:00,41.0,37.0,-100.00,SW,215,3.0,6.0,84,0.00,,,-99.99,53.000000,,2013-10-23 15:33:00,
2013-10-23 09:43:00,41.0,37.0,-100.00,SW,215,3.0,6.0,84,0.00,,,-99.99,53.000000,,2013-10-23 15:43:00,
2013-10-23 09:53:00,41.0,37.0,-100.00,SW,215,3.0,6.0,84,0.00,,,-99.99,53.000000,,2013-10-23 15:53:00,
2013-10-23 10:23:00,45.0,38.0,-100.00,WNW,302,2.0,8.0,76,0.00,,,0.00,132.000000,,2013-10-23 16:23:00,
2013-10-23 10:33:00,45.0,38.0,-100.00,WNW,302,2.0,8.0,76,0.00,,,0.00,132.000000,,2013-10-23 16:33:00,
2013-10-23 10:43:00,45.0,38.0,-100.00,WNW,302,2.0,8.0,76,0.00,,,0.00,132.000000,,2013-10-23 16:43:00,
2013-10-23 10:53:00,45.0,38.0,-100.00,WNW,302,2.0,8.0,76,0.00,,,0.00,132.000000,,2013-10-23 16:53:00,
2013-10-23 11:23:00,49.0,38.0,-100.00,NW,306,4.0,9.0,65,0.00,,,0.00,220.000000,,2013-10-23 17:23:00,
2013-10-23 11:34:00,49.0,38.0,-100.00,NW,306,4.0,9.0,65,0.00,,,0.00,220.000000,,2013-10-23 17:34:00,
2013-10-23 11:44:00,49.0,38.0,-100.00,NW,306,4.0,9.0,65,0.00,,,0.00,220.000000,,2013-10-23 17:44:00,
2013-10-23 11:52:00,49.0,38.0,-100.00,NW,306,4.0,9.0,65,0.00,,,0.00,220.000000,,2013-10-23 17:52:00,
2013-10-23 13:22:00,56.0,38.0,-100.00,WNW,292,7.0,13.0,50,-99.99,,,0.00,639.000000,,2013-10-23 19:22:00,
2013-10-23 13:32:00,56.0,38.0,-100.00,WNW,292,7.0,13.0,50,-99.99,,,0.00,639.000000,,2013-10-23 19:32:00,
2013-10-23 13:42:00,56.0,38.0,-100.00,WNW,292,7.0,13.0,50,-99.99,,,0.00,639.000000,,2013-10-23 19:42:00,
2013-10-23 13:53:00,56.0,38.0,-100.00,WNW,292,7.0,13.0,50,-99.99,,,0.00,639.000000,,2013-10-23 19:53:00,
2013-10-23 14:22:00,59.0,39.0,-100.00,WNW,297,6.0,15.0,47,0.00,,,0.00,635.000000,,2013-10-23 20:22:00,
2013-10-23 14:33:00,59.0,39.0,-100.00,WNW,297,6.0,15.0,47,0.00,,,0.00,635.000000,,2013-10-23 20:33:00,
2013-10-23 14:42:00,59.0,39.0,-100.00,WNW,297,6.0,15.0,47,0.00,,,0.00,635.000000,,2013-10-23 20:42:00,
2013-10-23 14:52:00,59.0,39.0,-100.00,WNW,297,6.0,15.0,47,0.00,,,0.00,635.000000,,2013-10-23 20:52:00,
2013-10-23 15:22:00,59.0,36.0,-100.00,WNW,299,7.0,16.0,42,0.00,,,0.00,577.000000,,2013-10-23 21:22:00,
2013-10-23 15:34:00,59.0,36.0,-100.00,WNW,299,7.0,16.0,42,0.00,,,0.00,577.000000,,2013-10-23 21:34:00,
2013-10-23 15:43:00,59.0,36.0,-100.00,WNW,299,7.0,16.0,42,0.00,,,0.00,577.000000,,2013-10-23 21:43:00,
2013-10-23 15:54:00,59.0,36.0,-100.00,WNW,299,7.0,16.0,42,0.00,,,0.00,577.000000,,2013-10-23 21:54:00,
2013-10-23 16:24:00,59.0,35.0,-100.00,NW,306,7.0,17.0,40,0.00,,,0.00,204.000000,,2013-10-23 22:24:00,
2013-10-23 16:33:00,59.0,35.0,-100.00,NW,306,7.0,17.0,40,0.00,,,0.00,204.000000,,2013-10-23 22:33:00,
2013-10-23 16:43:00,59.0,35.0,-100.00,NW,306,7.0,17.0,40,0.00,,,0.00,204.000000,,2013-10-23 22:43:00,
2013-10-23 17:22:00,51.0,38.0,-100.00,West,280,4.0,11.0,62,-99.99,,,0.00,71.000000,,2013-10-23 23:22:00,
2013-10-23 17:34:00,51.0,38.0,-100.00,West,280,4.0,11.0,62,-99.99,,,0.00,71.000000,,2013-10-23 23:34:00,
2013-10-23 17:42:00,51.0,38.0,-100.00,West,280,4.0,11.0,62,-99.99,,,0.00,71.000000,,2013-10-23 23:42:00,
2013-10-23 17:52:00,51.0,38.0,-100.00,West,280,4.0,11.0,62,-99.99,,,0.00,71.000000,,2013-10-23 23:52:00,
2013-10-23 18:22:00,46.0,38.0,-100.00,SSE,147,2.0,10.0,74,0.00,,,-99.99,33.000000,,2013-10-24 00:22:00,
2013-10-23 18:32:00,46.0,38.0,-100.00,SSE,147,2.0,10.0,74,0.00,,,-99.99,33.000000,,2013-10-24 00:32:00,
2013-10-23 18:42:00,46.0,38.0,-100.00,SSE,147,2.0,10.0,74,0.00,,,-99.99,33.000000,,2013-10-24 00:42:00,
2013-10-23 18:52:00,46.0,38.0,-100.00,SSE,147,2.0,10.0,74,0.00,,,-99.99,33.000000,,2013-10-24 00:52:00,
2013-10-23 19:22:00,42.0,37.0,-100.00,WNW,284,3.0,8.0,83,0.00,,,0.00,1.000000,,2013-10-24 01:22:00,
2013-10-23 19:32:00,42.0,37.0,-100.00,WNW,284,3.0,8.0,83,0.00,,,0.00,1.000000,,2013-10-24 01:32:00,
2013-10-23 19:42:00,42.0,37.0,-100.00,WNW,284,3.0,8.0,83,0.00,,,0.00,1.000000,,2013-10-24 01:42:00,
2013-10-23 19:52:00,42.0,37.0,-100.00,WNW,284,3.0,8.0,83,0.00,,,0.00,1.000000,,2013-10-24 01:52:00,
2013-10-23 20:22:00,41.0,37.0,-100.00,NE,39,2.0,7.0,87,0.00,,,0.00,0.000000,,2013-10-24 02:22:00,
2013-10-23 20:32:00,41.0,37.0,-100.00,NE,39,2.0,7.0,87,0.00,,,0.00,0.000000,,2013-10-24 02:32:00,
2013-10-23 20:42:00,41.0,37.0,-100.00,NE,39,2.0,7.0,87,0.00,,,0.00,0.000000,,2013-10-24 02:42:00,
2013-10-23 20:52:00,41.0,37.0,-100.00,NE,39,2.0,7.0,87,0.00,,,0.00,0.000000,,2013-10-24 02:52:00,
2013-10-23 21:22:00,41.0,37.0,-100.00,SSW,203,3.0,4.0,87,0.00,,,0.00,0.000000,,2013-10-24 03:22:00,
2013-10-23 21:34:00,41.0,37.0,-100.00,SSW,203,3.0,4.0,87,0.00,,,0.00,0.000000,,2013-10-24 03:34:00,
2013-10-23 21:44:00,41.0,37.0,-100.00,SSW,203,3.0,4.0,87,0.00,,,0.00,0.000000,,2013-10-24 03:44:00,
2013-10-23 21:54:00,41.0,37.0,-100.00,SSW,203,3.0,4.0,87,0.00,,,0.00,0.000000,,2013-10-24 03:54:00,
2013-10-23 22:24:00,40.0,37.0,-100.00,WNW,294,2.0,4.0,88,0.00,,,0.00,0.000000,,2013-10-24 04:24:00,
2013-10-23 22:35:00,40.0,37.0,-100.00,WNW,294,2.0,4.0,88,0.00,,,0.00,0.000000,,2013-10-24 04:35:00,
2013-10-23 22:44:00,40.0,37.0,-100.00,WNW,294,2.0,4.0,88,0.00,,,0.00,0.000000,,2013-10-24 04:44:00,
2013-10-23 22:54:00,40.0,37.0,-100.00,WNW,294,2.0,4.0,88,0.00,,,0.00,0.000000,,2013-10-24 04:54:00,
2013-10-23 23:22:00,39.0,36.0,-100.00,SSW,193,3.0,7.0,89,0.00,,,0.00,0.000000,,2013-10-24 05:22:00,
2013-10-23 23:33:00,39.0,36.0,-100.00,SSW,193,3.0,7.0,89,0.00,,,0.00,0.000000,,2013-10-24 05:33:00,
2013-10-23 23:43:00,39.0,36.0,-100.00,SSW,193,3.0,7.0,89,0.00,,,0.00,0.000000,,2013-10-24 05:43:00,
2013-10-23 23:53:00,39.0,36.0,-100.00,SSW,193,3.0,7.0,89,0.00,,,0.00,0.000000,,2013-10-24 05:53:00,